NI0Z Weather Reports


Display with metric or nautical units.
time (UTC)temp
F
wind
direction
speed
MPH
gust
MPH
rain 1hr
in
rain 24hr
in
rain mn
in
humidity
%
barometer
mb
20260507020607 49 329 0.0 0.0 0.00 0.02 0.02 62
20260507015602 50 329 0.0 0.0 0.00 0.02 0.02 56
20260507015059 50 330 0.0 0.0 0.00 0.02 0.02 54
20260507014555 51 329 0.0 0.0 0.00 0.02 0.02 53
20260507014045 51 329 0.0 0.0 0.00 0.02 0.02 54
20260507013542 51 329 0.0 0.0 0.00 0.02 0.02 55
20260507013040 52 329 0.0 0.0 0.00 0.02 0.02 54
20260507012537 52 325 0.0 0.0 0.00 0.02 0.02 53
20260507012032 53 325 0.0 0.0 0.00 0.02 0.02 48
20260507011530 53 321 0.0 0.0 0.00 0.02 0.02 47
20260507011026 54 321 0.0 0.0 0.00 0.02 0.02 45
20260507010521 55 320 0.0 0.0 0.00 0.02 0.02 43
20260507010017 55 319 0.0 0.0 0.00 0.02 0.02 44
20260507005514 55 315 0.0 0.0 0.00 0.02 0.02 42
20260507005011 56 309 0.0 0.0 0.00 0.02 0.02 43
20260507004508 56 315 0.0 0.0 0.00 0.02 0.02 41
20260507004006 56 254 1.0 2.0 0.00 0.02 0.02 40
20260507003501 56 303 0.0 0.0 0.00 0.02 0.02 42
20260507002956 57 306 1.0 3.0 0.00 0.02 0.02 38
20260507002453 57 306 1.0 3.0 0.00 0.02 0.02 39
20260507001949 57 319 0.0 3.0 0.00 0.02 0.02 40
20260507001446 57 276 1.0 2.0 0.00 0.02 0.02 39
20260507000943 57 290 2.0 3.0 0.00 0.02 0.02 37
20260507000438 57 276 0.0 3.0 0.00 0.02 0.02 40
20260506235934 57 296 3.0 3.0 0.00 0.02 0.02 38
20260506235432 57 312 1.0 5.0 0.00 0.02 0.02 37
20260506234927 58 302 2.0 3.0 0.00 0.02 0.02 35
20260506234426 58 244 6.0 7.0 0.00 0.02 0.02 35
20260506233923 58 254 2.0 6.0 0.00 0.02 0.02 38
20260506233420 58 160 3.0 6.0 0.00 0.02 0.02 37
20260506232916 58 203 3.0 7.0 0.00 0.02 0.02 38
20260506232412 58 288 1.0 3.0 0.00 0.02 0.02 36
20260506231908 58 289 2.0 3.0 0.00 0.02 0.02 37
20260506231406 58 304 0.0 3.0 0.00 0.02 0.02 38
20260506230903 58 308 2.0 3.0 0.00 0.02 0.02 37
20260506230400 58 294 2.0 3.0 0.00 0.02 0.02 38
20260506225856 58 323 0.0 2.0 0.00 0.02 0.02 38
20260506225353 58 274 1.0 6.0 0.00 0.02 0.02 39
20260506224850 58 228 2.0 3.0 0.00 0.02 0.02 39
20260506224348 58 260 0.0 2.0 0.00 0.02 0.02 39
20260506223844 58 293 2.0 5.0 0.00 0.02 0.02 38
20260506223339 58 321 0.0 2.0 0.00 0.02 0.02 39
20260506222836 58 261 2.0 7.0 0.00 0.02 0.02 38
20260506222331 58 309 3.0 5.0 0.00 0.02 0.02 38
20260506221825 58 207 3.0 5.0 0.00 0.02 0.02 37
20260506221322 58 280 4.0 6.0 0.00 0.02 0.02 35
20260506220819 58 263 1.0 2.0 0.00 0.02 0.02 38
20260506220314 58 299 1.0 3.0 0.00 0.02 0.02 37
20260506215811 58 249 5.0 7.0 0.00 0.02 0.02 37
20260506215307 58 216 1.0 6.0 0.00 0.02 0.02 39
20260506214803 59 172 4.0 5.0 0.00 0.02 0.02 39
20260506214300 58 296 3.0 5.0 0.00 0.02 0.02 38
20260506213758 58 309 3.0 5.0 0.00 0.02 0.02 37
20260506213254 58 270 3.0 6.0 0.00 0.02 0.02 39
20260506212752 58 304 3.0 3.0 0.00 0.02 0.02 37
20260506212247 58 279 4.0 7.0 0.00 0.02 0.02 40
20260506211743 59 313 0.0 3.0 0.00 0.02 0.02 39
20260506211240 58 287 3.0 7.0 0.00 0.02 0.02 38
20260506210737 58 327 4.0 8.0 0.00 0.02 0.02 38
20260506210233 58 310 3.0 7.0 0.00 0.02 0.02 37
20260506205730 59 323 4.0 5.0 0.00 0.02 0.02 39
20260506205226 58 303 0.0 2.0 0.00 0.02 0.02 42
20260506204718 58 289 2.0 5.0 0.00 0.02 0.02 38
20260506204215 57 301 1.0 2.0 0.00 0.02 0.02 41
20260506203713 57 315 0.0 5.0 0.00 0.02 0.02 38
20260506203210 57 127 1.0 6.0 0.00 0.02 0.02 41
20260506202708 58 221 2.0 7.0 0.00 0.02 0.02 41
20260506202203 58 253 5.0 7.0 0.00 0.02 0.02 37
20260506201701 57 286 3.0 8.0 0.00 0.02 0.02 39
20260506201157 58 205 3.0 6.0 0.00 0.02 0.02 37
20260506200654 58 287 2.0 5.0 0.00 0.02 0.02 38
20260506200150 58 307 4.0 6.0 0.00 0.02 0.02 38
20260506195647 58 320 3.0 7.0 0.00 0.02 0.02 39
20260506195143 57 301 0.0 3.0 0.00 0.02 0.02 43
20260506194641 58 325 0.0 5.0 0.00 0.02 0.02 43
20260506194137 58 210 2.0 3.0 0.00 0.02 0.02 41
20260506193635 57 322 3.0 5.0 0.00 0.02 0.02 38
20260506193132 57 307 2.0 3.0 0.00 0.02 0.02 40
20260506192628 57 285 4.0 7.0 0.00 0.02 0.02 37
20260506192124 57 286 3.0 5.0 0.00 0.02 0.02 38
20260506191621 57 184 5.0 8.0 0.00 0.02 0.02 40
20260506191117 57 329 1.0 5.0 0.00 0.02 0.02 40
20260506190615 57 313 1.0 6.0 0.00 0.02 0.02 40
20260506190111 56 221 2.0 3.0 0.00 0.02 0.02 44
20260506185609 57 297 3.0 3.0 0.00 0.02 0.02 38
20260506185105 56 296 2.0 3.0 0.00 0.02 0.02 37
20260506184602 56 293 2.0 3.0 0.00 0.02 0.02 46
20260506184059 57 236 3.0 5.0 0.00 0.02 0.02 42
20260506183556 56 293 1.0 3.0 0.00 0.02 0.02 42
20260506183052 56 290 2.0 3.0 0.00 0.02 0.02 39
20260506182550 55 283 1.0 5.0 0.00 0.02 0.02 47
20260506182047 54 272 4.0 6.0 0.00 0.02 0.02 41
20260506181545 54 264 2.0 6.0 0.00 0.02 0.02 43
20260506181041 54 295 5.0 8.0 0.00 0.02 0.02 42
20260506180537 54 290 2.0 5.0 0.00 0.02 0.02 41
20260506180035 54 297 0.0 0.0 0.00 0.02 0.02 42
20260506175531 54 246 3.0 6.0 0.00 0.02 0.02 45
20260506175027 54 319 1.0 5.0 0.00 0.02 0.02 43
20260506174526 54 295 3.0 5.0 0.00 0.02 0.02 43
20260506174022 53 290 0.0 2.0 0.00 0.02 0.02 47
20260506173520 53 239 3.0 3.0 0.00 0.02 0.02 44
20260506173017 54 296 1.0 7.0 0.00 0.02 0.02 43
20260506172514 54 306 0.0 3.0 0.00 0.02 0.02 46
20260506172010 54 313 1.0 6.0 0.00 0.02 0.02 41
20260506171507 55 294 2.0 5.0 0.00 0.02 0.02 41
20260506171004 55 286 1.0 6.0 0.00 0.02 0.02 43
20260506170502 55 283 2.0 2.0 0.00 0.02 0.02 45
20260506170000 55 325 2.0 6.0 0.00 0.02 0.02 42
20260506165458 55 245 2.0 3.0 0.00 0.02 0.02 44
20260506164954 54 215 2.0 5.0 0.00 0.02 0.02 44
20260506164451 53 317 1.0 5.0 0.00 0.02 0.02 44
20260506163949 53 323 0.0 5.0 0.00 0.02 0.02 46
20260506163443 53 273 2.0 7.0 0.00 0.02 0.02 46
20260506162938 53 216 1.0 6.0 0.00 0.02 0.02 45
20260506162436 53 263 3.0 5.0 0.00 0.02 0.02 44
20260506161934 53 313 1.0 5.0 0.00 0.02 0.02 45
20260506161432 53 205 4.0 10.0 0.00 0.02 0.02 43
20260506160929 53 282 4.0 6.0 0.00 0.02 0.02 46
20260506160426 52 282 0.0 1.0 0.00 0.02 0.02 47
20260506155923 52 318 2.0 3.0 0.00 0.02 0.02 46
20260506155420 52 294 3.0 6.0 0.00 0.02 0.02 45
20260506153542 53 315 0.0 1.0 0.00 0.02 0.02 50
20260506153040 52 294 1.0 3.0 0.00 0.02 0.02 49
20260506152537 52 276 2.0 6.0 0.00 0.02 0.02 52
20260506152035 52 301 1.0 6.0 0.00 0.02 0.02 50
20260506151532 52 236 4.0 6.0 0.00 0.02 0.02 52
20260506151029 52 173 2.0 7.0 0.00 0.02 0.02 53
20260506150526 52 300 1.0 5.0 0.00 0.02 0.02 53
20260506150023 52 314 2.0 3.0 0.00 0.02 0.02 54
20260506145519 51 317 1.0 2.0 0.00 0.02 0.02 54
20260506145017 51 245 3.0 3.0 0.00 0.02 0.02 58
20260506144513 51 318 0.0 2.0 0.00 0.02 0.02 58
20260506144011 51 268 0.0 3.0 0.00 0.02 0.02 60
20260506143509 51 321 1.0 3.0 0.00 0.02 0.02 56
20260506143007 51 254 1.0 2.0 0.00 0.02 0.02 64
20260506142504 50 299 2.0 5.0 0.00 0.02 0.02 62
20260506142002 50 302 0.0 0.0 0.00 0.02 0.02 63
20260506141500 50 315 1.0 2.0 0.00 0.02 0.02 62
20260506140958 50 314 0.0 2.0 0.00 0.02 0.02 64
20260506140455 49 299 2.0 5.0 0.00 0.02 0.02 60
20260506135951 50 311 0.0 3.0 0.00 0.02 0.02 64
20260506135449 49 296 0.0 1.0 0.00 0.02 0.02 65
20260506134944 49 295 2.0 2.0 0.00 0.02 0.02 66
20260506134441 49 298 1.0 2.0 0.00 0.02 0.02 64
20260506133938 49 303 1.0 2.0 0.00 0.02 0.02 68
20260506133435 49 284 0.0 2.0 0.00 0.02 0.02 67
20260506132931 48 224 2.0 6.0 0.00 0.02 0.02 68
20260506132429 48 292 1.0 5.0 0.00 0.02 0.02 70
20260506131926 48 317 0.0 1.0 0.00 0.02 0.02 75
20260506131422 47 278 1.0 2.0 0.00 0.02 0.02 77
20260506130919 46 316 0.0 2.0 0.00 0.02 0.02 79
20260506130416 46 284 0.0 2.0 0.00 0.02 0.02 81
20260506125914 45 325 0.0 2.0 0.00 0.02 0.02 82
20260506125412 45 314 0.0 1.0 0.00 0.02 0.02 82
20260506124910 46 317 0.0 0.0 0.00 0.02 0.02 83
20260506124407 45 319 0.0 0.0 0.00 0.02 0.02 83
20260506123905 45 326 0.0 0.0 0.00 0.02 0.02 84
20260506123403 45 326 0.0 0.0 0.00 0.02 0.02 85
20260506122900 45 327 0.0 0.0 0.00 0.02 0.02 85
20260506122356 45 323 0.0 0.0 0.00 0.02 0.02 85
20260506121855 45 308 0.0 0.0 0.00 0.02 0.02 86
20260506121352 45 323 0.0 0.0 0.00 0.02 0.02 85
20260506120848 44 321 0.0 0.0 0.00 0.02 0.02 85
20260506120346 45 319 0.0 0.0 0.00 0.02 0.02 85
20260506115843 44 327 0.0 0.0 0.00 0.02 0.02 83
20260506115342 44 327 0.0 0.0 0.00 0.02 0.02 83
20260506114839 44 329 0.0 0.0 0.00 0.02 0.02 82
20260506114337 44 329 0.0 0.0 0.00 0.02 0.02 82
20260506113835 44 329 0.0 0.0 0.00 0.02 0.02 84
20260506113332 44 338 0.0 0.0 0.00 0.02 0.02 84
20260506112829 44 331 0.0 0.0 0.00 0.02 0.02 85
20260506112326 44 328 0.0 0.0 0.00 0.02 0.02 85
20260506111823 44 330 0.0 0.0 0.00 0.02 0.02 85
20260506111321 44 325 0.0 0.0 0.00 0.02 0.02 84
20260506110819 44 340 0.0 0.0 0.00 0.02 0.02 84
20260506110316 44 331 0.0 0.0 0.00 0.02 0.02 83
20260506105812 44 321 0.0 0.0 0.00 0.02 0.02 84
20260506105309 44 321 0.0 2.0 0.00 0.02 0.02 85
20260506104807 44 310 2.0 2.0 0.00 0.02 0.02 86
20260506104304 44 160 2.0 3.0 0.00 0.02 0.02 87
20260506103801 44 258 0.0 2.0 0.00 0.02 0.02 88
20260506103259 44 331 0.0 0.0 0.00 0.02 0.02 88
20260506102756 44 321 0.0 1.0 0.00 0.02 0.02 88
20260506102254 44 347 0.0 0.0 0.00 0.02 0.02 89
20260506101751 44 294 0.0 1.0 0.00 0.02 0.02 89
20260506101247 44 242 0.0 0.0 0.00 0.02 0.02 89
20260506100745 44 267 0.0 2.0 0.00 0.02 0.02 90
20260506100243 44 305 0.0 1.0 0.00 0.02 0.02 90
20260506095742 43 265 0.0 2.0 0.00 0.02 0.02 90
20260506095238 44 298 0.0 0.0 0.00 0.02 0.02 90
20260506094735 44 315 0.0 0.0 0.00 0.02 0.02 90
20260506094233 44 306 0.0 1.0 0.00 0.02 0.02 90
20260506093731 44 315 0.0 0.0 0.00 0.02 0.02 90
20260506093228 44 316 0.0 0.0 0.00 0.02 0.02 90
20260506092726 44 317 0.0 0.0 0.00 0.02 0.02 89
20260506092223 44 322 0.0 0.0 0.00 0.02 0.02 89
20260506091721 44 323 0.0 0.0 0.00 0.02 0.02 89
20260506091218 44 325 0.0 0.0 0.00 0.02 0.02 88
20260506090716 44 325 0.0 0.0 0.00 0.02 0.02 88
20260506090212 44 325 0.0 0.0 0.00 0.02 0.02 88
20260506085710 44 325 0.0 0.0 0.00 0.02 0.02 88
20260506085205 44 324 0.0 0.0 0.00 0.02 0.02 88
20260506084702 44 325 0.0 0.0 0.00 0.02 0.02 87
20260506084159 44 325 0.0 0.0 0.00 0.02 0.02 87
20260506083655 44 324 0.0 0.0 0.00 0.02 0.02 86
20260506083154 44 325 0.0 0.0 0.00 0.02 0.02 86
20260506082650 44 325 0.0 0.0 0.00 0.02 0.02 86
20260506082151 44 323 0.0 0.0 0.00 0.02 0.02 86
20260506081649 44 330 0.0 0.0 0.00 0.02 0.02 85
20260506081147 44 330 0.0 0.0 0.00 0.02 0.02 85
20260506080644 44 331 0.0 0.0 0.00 0.02 0.02 85
20260506080141 44 331 0.0 0.0 0.00 0.02 0.02 85
20260506073125 45 332 0.0 0.0 0.00 0.02 0.02 82
20260506072621 45 332 0.0 1.0 0.00 0.02 0.02 81
20260506072119 45 332 1.0 1.0 0.00 0.02 0.02 81
20260506071617 45 338 1.0 2.0 0.00 0.02 0.02 81
20260506071114 44 346 1.0 1.0 0.00 0.02 0.02 82
20260506070611 45 330 0.0 0.0 0.00 0.02 0.02 83
20260506070108 44 322 0.0 0.0 0.00 0.02 0.02 83
20260506062045 45 309 1.0 2.0 0.00 0.01 0.01 81
20260506061541 45 322 0.0 1.0 0.00 0.01 0.01 80
20260506061039 45 313 3.0 3.0 0.00 0.01 0.01 79
20260506060537 45 293 2.0 5.0 0.00 0.01 0.01 79
20260506051006 47 280 2.0 5.0 0.05 0.01 0.01 74
20260506050504 47 226 3.0 5.0 0.05 0.01 0.01 73
20260506044954 48 298 1.0 3.0 0.00 0.76 0.76 70
20260506044452 48 291 0.0 2.0 0.00 0.76 0.76 70
20260506043948 48 232 2.0 5.0 0.00 0.76 0.76 70
20260506043446 48 309 1.0 2.0 0.00 0.76 0.76 69
20260506042943 49 294 3.0 7.0 0.00 0.76 0.76 67
20260506042443 48 316 3.0 6.0 0.00 0.76 0.76 67
20260506041940 48 230 2.0 5.0 0.00 0.76 0.76 71
20260506041438 48 274 5.0 9.0 0.00 0.76 0.76 76
20260506040935 48 237 4.0 6.0 0.00 0.76 0.76 78
20260506040433 48 315 1.0 1.0 0.00 0.76 0.76 82
20260506035928 48 303 0.0 0.0 0.00 0.76 0.76 82
20260506035426 49 313 0.0 0.0 0.00 0.76 0.76 83
20260506034922 49 320 0.0 0.0 0.00 0.76 0.76 82
20260506034420 49 321 0.0 0.0 0.00 0.76 0.76 79
20260506033917 49 327 0.0 0.0 0.00 0.76 0.76 81
20260506033414 49 320 0.0 0.0 0.00 0.76 0.76 82
20260506032911 49 328 0.0 0.0 0.00 0.76 0.76 81
20260506032408 49 328 0.0 0.0 0.00 0.76 0.76 81
20260506031904 49 314 0.0 0.0 0.00 0.76 0.76 83
20260506031402 48 303 0.0 0.0 0.00 0.76 0.76 85
20260506030859 48 326 0.0 2.0 0.00 0.76 0.76 87
20260506030357 48 311 0.0 0.0 0.00 0.76 0.76 90
20260506025854 48 317 0.0 0.0 0.00 0.76 0.76 90
20260506025350 48 330 0.0 0.0 0.00 0.76 0.76 90
20260506024848 48 329 0.0 0.0 0.00 0.76 0.76 90
20260506024344 48 331 0.0 0.0 0.00 0.76 0.76 89
20260506023840 48 327 0.0 0.0 0.00 0.76 0.76 89
20260506023337 49 326 0.0 0.0 0.00 0.76 0.76 89
20260506022834 49 326 0.0 0.0 0.00 0.76 0.76 89
20260506022332 49 326 0.0 0.0 0.00 0.76 0.76 89
20260506021830 48 329 0.0 0.0 0.00 0.76 0.76 88
20260506021327 48 329 0.0 0.0 0.00 0.76 0.76 88